Time,TemperatureF,DewpointF,PressureIn,WindDirection,WindDirectionDegrees,WindSpeedMPH,WindSpeedGustMPH,Humidity,HourlyPrecipIn,Conditions,Clouds,dailyrainin,SoftwareType,DateUTC
2013-04-19 00:03:00,33.3,13.8,25.28,NE,44,3.0,4.0,44,0.00,,,-99.99,FreeWX 2.04,2013-04-19 06:03:00,
2013-04-19 00:08:00,32.7,13.8,25.28,NE,44,1.0,3.1,45,0.00,,,-99.99,FreeWX 2.04,2013-04-19 06:08:00,
2013-04-19 00:13:00,32.2,14.2,25.28,North,-999,0.0,4.5,47,0.00,,,-99.99,FreeWX 2.04,2013-04-19 06:13:00,
2013-04-19 00:18:00,32.0,14.0,25.28,NE,44,1.0,3.6,47,0.00,,,-99.99,FreeWX 2.04,2013-04-19 06:18:00,
2013-04-19 00:23:00,31.8,14.9,25.28,NE,44,1.0,3.6,49,0.00,,,-99.99,FreeWX 2.04,2013-04-19 06:23:00,
2013-04-19 00:28:00,30.9,14.5,25.28,North,-999,0.0,3.6,50,0.00,,,-99.99,FreeWX 2.04,2013-04-19 06:28:00,
2013-04-19 00:33:00,31.1,15.1,25.28,NE,44,2.0,4.9,51,0.00,,,-99.99,FreeWX 2.04,2013-04-19 06:33:00,
2013-04-19 00:38:00,31.5,15.4,25.28,NE,44,2.0,3.6,51,0.00,,,-99.99,FreeWX 2.04,2013-04-19 06:38:00,
2013-04-19 00:43:00,31.1,15.6,25.28,NE,44,1.0,4.0,52,0.00,,,-99.99,FreeWX 2.04,2013-04-19 06:43:00,
2013-04-19 00:48:00,30.7,15.6,25.28,North,-999,0.0,0.0,53,0.00,,,-99.99,FreeWX 2.04,2013-04-19 06:48:00,
2013-04-19 00:53:00,30.4,15.3,25.28,North,-999,0.0,4.0,53,0.00,,,-99.99,FreeWX 2.04,2013-04-19 06:53:00,
2013-04-19 00:58:00,30.0,14.9,25.28,North,-999,0.0,0.0,53,0.00,,,-99.99,FreeWX 2.04,2013-04-19 06:58:00,
2013-04-19 01:03:00,30.6,16.0,25.28,North,-999,0.0,0.0,54,0.00,,,-99.99,FreeWX 2.04,2013-04-19 07:03:00,
2013-04-19 01:08:00,30.9,15.8,25.28,North,-999,0.0,0.0,53,0.00,,,-99.99,FreeWX 2.04,2013-04-19 07:08:00,
2013-04-19 01:13:00,30.7,15.6,25.28,North,-999,0.0,0.0,53,0.00,,,-99.99,FreeWX 2.04,2013-04-19 07:13:00,
2013-04-19 01:18:00,30.0,14.9,25.28,North,-999,0.0,4.0,53,0.00,,,-99.99,FreeWX 2.04,2013-04-19 07:18:00,
2013-04-19 01:23:00,30.0,15.8,25.28,NE,44,2.0,4.0,55,0.00,,,-99.99,FreeWX 2.04,2013-04-19 07:23:00,
2013-04-19 01:28:00,29.8,16.2,25.28,NE,44,1.0,4.0,56,0.00,,,-99.99,FreeWX 2.04,2013-04-19 07:28:00,
2013-04-19 01:33:00,29.5,16.5,25.28,NE,44,1.0,4.5,58,0.00,,,-99.99,FreeWX 2.04,2013-04-19 07:33:00,
2013-04-19 01:38:00,29.1,16.5,25.28,NE,44,1.0,0.0,59,0.00,,,-99.99,FreeWX 2.04,2013-04-19 07:38:00,
2013-04-19 01:43:00,28.9,17.2,25.28,North,-999,0.0,3.6,61,0.00,,,-99.99,FreeWX 2.04,2013-04-19 07:43:00,
2013-04-19 01:48:00,28.9,17.2,25.28,North,-999,0.0,3.6,61,0.00,,,-99.99,FreeWX 2.04,2013-04-19 07:48:00,
2013-04-19 01:53:00,29.3,18.0,25.28,North,-999,0.0,3.6,62,0.00,,,-99.99,FreeWX 2.04,2013-04-19 07:53:00,
2013-04-19 01:58:00,29.5,18.5,25.28,North,-999,0.0,2.7,63,0.00,,,-99.99,FreeWX 2.04,2013-04-19 07:58:00,
2013-04-19 02:03:00,29.5,18.5,25.28,North,-999,0.0,4.0,63,0.00,,,-99.99,FreeWX 2.04,2013-04-19 08:03:00,
2013-04-19 02:08:00,29.7,18.3,25.28,NE,44,2.0,4.5,62,0.00,,,-99.99,FreeWX 2.04,2013-04-19 08:08:00,
2013-04-19 02:13:00,30.0,18.7,25.28,NE,44,1.0,4.5,62,0.00,,,-99.99,FreeWX 2.04,2013-04-19 08:13:00,
2013-04-19 02:18:00,30.7,18.1,25.28,NE,44,2.0,5.4,59,0.00,,,-99.99,FreeWX 2.04,2013-04-19 08:18:00,
2013-04-19 02:23:00,30.6,16.7,25.28,NE,44,4.0,5.8,56,0.00,,,-99.99,FreeWX 2.04,2013-04-19 08:23:00,
2013-04-19 02:28:00,30.6,16.0,25.28,NE,44,4.0,5.8,54,0.00,,,-99.99,FreeWX 2.04,2013-04-19 08:28:00,
2013-04-19 02:33:00,30.0,15.8,25.28,NE,44,2.0,3.6,55,0.00,,,-99.99,FreeWX 2.04,2013-04-19 08:33:00,
2013-04-19 02:38:00,29.5,15.8,25.28,North,-999,0.0,0.0,56,0.00,,,-99.99,FreeWX 2.04,2013-04-19 08:38:00,
2013-04-19 02:43:00,29.1,15.8,25.28,North,-999,0.0,3.1,57,0.00,,,-99.99,FreeWX 2.04,2013-04-19 08:43:00,
2013-04-19 02:48:00,28.6,15.6,25.28,North,-999,0.0,0.0,58,0.00,,,-99.99,FreeWX 2.04,2013-04-19 08:48:00,
2013-04-19 02:53:00,28.8,16.3,25.28,North,-999,0.0,2.7,59,0.00,,,-99.99,FreeWX 2.04,2013-04-19 08:53:00,
2013-04-19 02:58:00,28.8,15.8,25.28,NE,44,1.0,4.0,58,0.00,,,-99.99,FreeWX 2.04,2013-04-19 08:58:00,
2013-04-19 03:03:00,28.6,16.5,25.28,NE,44,2.0,4.0,60,0.00,,,-99.99,FreeWX 2.04,2013-04-19 09:03:00,
2013-04-19 03:08:00,28.6,16.5,25.28,NE,44,2.0,3.6,60,0.00,,,-99.99,FreeWX 2.04,2013-04-19 09:08:00,
2013-04-19 03:13:00,28.8,17.1,25.28,NE,44,1.0,4.9,61,0.00,,,-99.99,FreeWX 2.04,2013-04-19 09:13:00,
2013-04-19 03:18:00,29.3,18.0,25.28,NE,44,2.0,4.9,62,0.00,,,-99.99,FreeWX 2.04,2013-04-19 09:18:00,
2013-04-19 03:23:00,30.0,18.1,25.28,NE,44,2.0,5.8,61,0.00,,,-99.99,FreeWX 2.04,2013-04-19 09:23:00,
2013-04-19 03:28:00,29.8,17.2,25.28,NE,44,3.0,6.7,59,0.00,,,-99.99,FreeWX 2.04,2013-04-19 09:28:00,
2013-04-19 03:33:00,29.7,16.3,25.28,NE,44,5.0,5.8,57,0.00,,,-99.99,FreeWX 2.04,2013-04-19 09:33:00,
2013-04-19 03:38:00,29.7,15.4,25.28,NE,44,4.0,5.8,55,0.00,,,-99.99,FreeWX 2.04,2013-04-19 09:38:00,
2013-04-19 03:43:00,29.7,15.4,25.28,NE,44,4.0,5.8,55,0.00,,,-99.99,FreeWX 2.04,2013-04-19 09:43:00,
2013-04-19 03:48:00,29.1,15.1,25.28,NE,44,3.0,4.9,55,0.00,,,-99.99,FreeWX 2.04,2013-04-19 09:48:00,
2013-04-19 03:53:00,28.9,14.9,25.28,NE,44,2.0,4.0,55,0.00,,,-99.99,FreeWX 2.04,2013-04-19 09:53:00,
2013-04-19 03:58:00,28.6,15.3,25.28,North,-999,0.0,0.0,57,0.00,,,-99.99,FreeWX 2.04,2013-04-19 09:58:00,
2013-04-19 04:03:00,28.0,15.3,25.28,North,-999,0.0,0.0,58,0.00,,,-99.99,FreeWX 2.04,2013-04-19 10:03:00,
2013-04-19 04:08:00,28.2,15.4,25.28,North,-999,0.0,3.6,58,0.00,,,-99.99,FreeWX 2.04,2013-04-19 10:08:00,
2013-04-19 04:13:00,28.6,15.6,25.28,North,-999,0.0,4.0,58,0.00,,,-99.99,FreeWX 2.04,2013-04-19 10:13:00,
2013-04-19 04:18:00,28.2,15.4,25.28,North,-999,0.0,3.1,58,0.00,,,-99.99,FreeWX 2.04,2013-04-19 10:18:00,
2013-04-19 04:23:00,28.4,15.6,25.28,North,-999,0.0,4.5,58,0.00,,,-99.99,FreeWX 2.04,2013-04-19 10:23:00,
2013-04-19 04:28:00,28.2,15.4,25.28,North,-999,0.0,3.6,58,0.00,,,-99.99,FreeWX 2.04,2013-04-19 10:28:00,
2013-04-19 04:34:00,28.4,15.6,25.28,NE,44,1.0,4.5,58,0.00,,,-99.99,FreeWX 2.04,2013-04-19 10:34:00,
2013-04-19 04:39:00,28.4,15.1,25.28,NE,44,2.0,6.3,57,0.00,,,-99.99,FreeWX 2.04,2013-04-19 10:39:00,
2013-04-19 04:44:00,28.8,15.1,25.28,NE,44,3.0,5.8,56,0.00,,,-99.99,FreeWX 2.04,2013-04-19 10:44:00,
2013-04-19 04:49:00,28.6,14.5,25.28,NE,44,4.0,6.7,55,0.00,,,-99.99,FreeWX 2.04,2013-04-19 10:49:00,
2013-04-19 04:54:00,28.4,13.8,25.28,NE,44,4.0,6.3,54,0.00,,,-99.99,FreeWX 2.04,2013-04-19 10:54:00,
2013-04-19 04:59:00,28.2,13.8,25.28,NE,44,4.0,5.4,54,0.00,,,-99.99,FreeWX 2.04,2013-04-19 10:59:00,
2013-04-19 05:04:00,28.2,13.8,25.28,NE,44,4.0,6.3,54,0.00,,,-99.99,FreeWX 2.04,2013-04-19 11:04:00,
2013-04-19 05:09:00,28.2,13.8,25.28,NE,44,4.0,6.3,54,0.00,,,-99.99,FreeWX 2.04,2013-04-19 11:09:00,
2013-04-19 05:14:00,28.0,13.6,25.28,NE,44,4.0,6.9,54,0.00,,,-99.99,FreeWX 2.04,2013-04-19 11:14:00,
2013-04-19 05:19:00,27.9,13.5,25.28,NE,44,4.0,5.4,54,0.00,,,-99.99,FreeWX 2.04,2013-04-19 11:19:00,
2013-04-19 05:24:00,27.9,13.8,25.28,NE,44,4.0,5.8,55,0.00,,,-99.99,FreeWX 2.04,2013-04-19 11:24:00,
2013-04-19 05:29:00,27.9,13.8,25.28,NE,44,4.0,5.8,55,0.00,,,-99.99,FreeWX 2.04,2013-04-19 11:29:00,
2013-04-19 05:34:00,27.7,13.6,25.28,NE,42,4.0,8.3,55,0.00,,,-99.99,FreeWX 2.04,2013-04-19 11:34:00,
2013-04-19 05:39:00,27.5,13.5,25.28,NNE,12,5.0,9.2,55,0.00,,,-99.99,FreeWX 2.04,2013-04-19 11:39:00,
2013-04-19 05:44:00,27.3,13.6,25.28,NNW,345,5.0,8.3,56,0.00,,,-99.99,FreeWX 2.04,2013-04-19 11:44:00,
2013-04-19 05:49:00,27.1,13.6,25.28,NNW,346,5.0,7.4,56,0.00,,,-99.99,FreeWX 2.04,2013-04-19 11:49:00,
2013-04-19 05:54:00,27.0,13.8,25.28,North,351,5.0,7.8,57,0.00,,,-99.99,FreeWX 2.04,2013-04-19 11:54:00,
2013-04-19 05:59:00,27.0,13.8,25.28,North,353,5.0,8.7,57,0.00,,,-99.99,FreeWX 2.04,2013-04-19 11:59:00,
2013-04-19 06:04:00,26.8,13.6,25.28,North,351,4.0,6.3,57,0.00,,,-99.99,FreeWX 2.04,2013-04-19 12:04:00,
2013-04-19 06:09:00,26.4,13.6,25.28,North,357,2.0,5.8,58,0.00,,,-99.99,FreeWX 2.04,2013-04-19 12:09:00,
2013-04-19 06:14:00,26.2,13.5,25.28,North,7,2.0,4.9,58,0.00,,,-99.99,FreeWX 2.04,2013-04-19 12:14:00,
2013-04-19 06:19:00,26.2,13.8,25.28,North,10,3.0,4.9,59,0.00,,,-99.99,FreeWX 2.04,2013-04-19 12:19:00,
2013-04-19 06:24:00,26.2,14.4,25.28,North,5,4.0,5.4,60,0.00,,,-99.99,FreeWX 2.04,2013-04-19 12:24:00,
2013-04-19 06:29:00,26.2,14.7,25.28,North,353,3.0,5.4,61,0.00,,,-99.99,FreeWX 2.04,2013-04-19 12:29:00,
2013-04-19 06:34:00,26.2,15.1,25.28,NNW,344,2.0,4.5,62,0.00,,,-99.99,FreeWX 2.04,2013-04-19 12:34:00,
2013-04-19 06:39:00,26.2,15.1,25.28,NNW,348,2.0,4.5,62,0.00,,,-99.99,FreeWX 2.04,2013-04-19 12:39:00,
2013-04-19 06:44:00,26.2,15.4,25.28,NNW,347,3.0,5.8,63,0.00,,,-99.99,FreeWX 2.04,2013-04-19 12:44:00,
2013-04-19 06:49:00,26.2,15.4,25.28,NNW,341,3.0,5.4,63,0.00,,,-99.99,FreeWX 2.04,2013-04-19 12:49:00,
2013-04-19 06:54:00,26.6,15.8,25.28,NNW,337,3.0,5.8,63,0.00,,,-99.99,FreeWX 2.04,2013-04-19 12:54:00,
2013-04-19 06:59:00,26.8,16.0,25.28,NNW,338,3.0,4.9,63,0.00,,,-99.99,FreeWX 2.04,2013-04-19 12:59:00,
2013-04-19 07:04:00,27.0,15.3,25.28,NNW,341,3.0,6.3,61,0.00,,,-99.99,FreeWX 2.04,2013-04-19 13:04:00,
2013-04-19 07:09:00,27.0,14.2,25.28,North,349,4.0,8.7,58,0.00,,,-99.99,FreeWX 2.04,2013-04-19 13:09:00,
2013-04-19 07:14:00,27.1,13.6,25.28,North,1,3.0,6.3,56,0.00,,,-99.99,FreeWX 2.04,2013-04-19 13:14:00,
2013-04-19 07:19:00,27.3,13.3,25.28,North,7,3.0,7.4,55,0.00,,,-99.99,FreeWX 2.04,2013-04-19 13:19:00,
2013-04-19 07:24:00,28.4,13.5,25.28,NNE,18,3.0,5.8,53,0.00,,,-99.99,FreeWX 2.04,2013-04-19 13:24:00,
2013-04-19 07:29:00,28.9,13.5,25.28,NNE,26,2.0,4.0,52,0.00,,,-99.99,FreeWX 2.04,2013-04-19 13:29:00,
2013-04-19 07:34:00,30.0,14.5,25.28,North,-999,0.0,0.0,52,0.00,,,-99.99,FreeWX 2.04,2013-04-19 13:34:00,
2013-04-19 07:39:00,30.4,14.4,25.28,North,-999,0.0,4.0,51,0.00,,,-99.99,FreeWX 2.04,2013-04-19 13:39:00,
2013-04-19 07:44:00,30.4,13.5,25.28,NNE,28,1.0,3.1,49,0.00,,,-99.99,FreeWX 2.04,2013-04-19 13:44:00,
2013-04-19 07:49:00,31.3,14.4,25.28,NNE,31,1.0,4.5,49,0.00,,,-99.99,FreeWX 2.04,2013-04-19 13:49:00,
2013-04-19 07:54:00,30.2,12.0,25.28,NNE,25,3.0,6.3,46,0.00,,,-99.99,FreeWX 2.04,2013-04-19 13:54:00,
2013-04-19 07:59:00,30.2,12.0,25.28,NNE,15,4.0,5.8,46,0.00,,,-99.99,FreeWX 2.04,2013-04-19 13:59:00,
2013-04-19 08:04:00,30.4,12.0,25.28,NNE,21,4.0,5.4,46,0.00,,,-99.99,FreeWX 2.04,2013-04-19 14:04:00,
2013-04-19 08:09:00,30.4,12.0,25.28,NNE,15,4.0,9.2,46,0.00,,,-99.99,FreeWX 2.04,2013-04-19 14:09:00,
2013-04-19 08:14:00,30.6,11.8,25.28,North,6,5.0,8.3,45,0.00,,,-99.99,FreeWX 2.04,2013-04-19 14:14:00,
2013-04-19 08:19:00,30.9,12.0,25.28,North,2,6.0,9.6,45,0.00,,,-99.99,FreeWX 2.04,2013-04-19 14:19:00,
2013-04-19 08:24:00,31.8,12.9,25.28,North,4,6.0,9.2,45,0.00,,,-99.99,FreeWX 2.04,2013-04-19 14:24:00,
2013-04-19 08:29:00,31.6,11.7,25.28,North,9,6.0,8.7,43,0.00,,,-99.99,FreeWX 2.04,2013-04-19 14:29:00,
2013-04-19 08:34:00,32.0,12.0,25.28,NNE,14,6.0,7.4,43,0.00,,,-99.99,FreeWX 2.04,2013-04-19 14:34:00,
2013-04-19 08:39:00,32.0,11.5,25.28,NNE,16,6.0,9.2,42,0.00,,,-99.99,FreeWX 2.04,2013-04-19 14:39:00,
2013-04-19 08:44:00,32.5,12.0,25.28,NNE,18,6.0,9.2,42,0.00,,,-99.99,FreeWX 2.04,2013-04-19 14:44:00,
2013-04-19 08:49:00,32.7,12.2,25.28,NNE,24,5.0,8.7,42,0.00,,,-99.99,FreeWX 2.04,2013-04-19 14:49:00,
2013-04-19 08:55:00,33.3,12.2,25.28,NNE,28,5.0,7.4,41,0.00,,,-99.99,FreeWX 2.04,2013-04-19 14:55:00,
2013-04-19 09:00:00,33.4,12.4,25.28,NE,38,5.0,7.4,41,0.00,,,-99.99,FreeWX 2.04,2013-04-19 15:00:00,
2013-04-19 09:05:00,34.0,12.7,25.28,NNE,33,5.0,7.4,41,0.00,,,-99.99,FreeWX 2.04,2013-04-19 15:05:00,
2013-04-19 09:10:00,34.3,12.6,25.28,North,9,5.0,7.8,40,0.00,,,-99.99,FreeWX 2.04,2013-04-19 15:10:00,
2013-04-19 09:15:00,34.7,12.9,25.28,North,358,6.0,8.7,40,0.00,,,-99.99,FreeWX 2.04,2013-04-19 15:15:00,
2013-04-19 09:20:00,35.1,12.6,25.28,North,356,6.0,6.9,39,0.00,,,-99.99,FreeWX 2.04,2013-04-19 15:20:00,
2013-04-19 09:25:00,35.4,12.4,25.28,North,359,5.0,8.3,38,0.00,,,-99.99,FreeWX 2.04,2013-04-19 15:25:00,
2013-04-19 09:30:00,36.0,12.9,25.28,North,9,6.0,10.1,38,0.00,,,-99.99,FreeWX 2.04,2013-04-19 15:30:00,
2013-04-19 09:35:00,36.1,12.4,25.28,North,9,6.0,11.2,37,0.00,,,-99.99,FreeWX 2.04,2013-04-19 15:35:00,
2013-04-19 09:40:00,36.7,12.2,25.28,North,5,6.0,9.2,36,0.00,,,-99.99,FreeWX 2.04,2013-04-19 15:40:00,
2013-04-19 09:45:00,37.0,12.0,25.28,North,5,5.0,8.3,35,0.00,,,-99.99,FreeWX 2.04,2013-04-19 15:45:00,
2013-04-19 09:50:00,37.6,12.4,25.28,North,2,5.0,10.5,35,0.00,,,-99.99,FreeWX 2.04,2013-04-19 15:50:00,
2013-04-19 09:55:00,37.8,12.6,25.25,North,354,6.0,10.5,35,0.00,,,-99.99,FreeWX 2.04,2013-04-19 15:55:00,
2013-04-19 10:00:00,37.4,10.9,25.25,NNW,337,6.0,7.4,33,0.00,,,-99.99,FreeWX 2.04,2013-04-19 16:00:00,
2013-04-19 10:05:00,37.8,10.6,25.25,NNW,344,5.0,7.4,32,0.00,,,-99.99,FreeWX 2.04,2013-04-19 16:05:00,
2013-04-19 10:10:00,39.0,12.4,25.25,NNE,13,5.0,11.0,33,0.00,,,-99.99,FreeWX 2.04,2013-04-19 16:10:00,
2013-04-19 10:15:00,39.2,10.4,25.25,NNE,15,6.0,9.6,30,0.00,,,-99.99,FreeWX 2.04,2013-04-19 16:15:00,
2013-04-19 10:20:00,39.7,11.7,25.25,North,8,6.0,8.7,31,0.00,,,-99.99,FreeWX 2.04,2013-04-19 16:20:00,
2013-04-19 10:25:00,39.4,10.6,25.25,North,9,5.0,7.4,30,0.00,,,-99.99,FreeWX 2.04,2013-04-19 16:25:00,
2013-04-19 10:30:00,39.4,10.6,25.25,North,358,4.0,6.7,30,0.00,,,-99.99,FreeWX 2.04,2013-04-19 16:30:00,
2013-04-19 10:35:00,40.5,10.8,25.25,North,356,4.0,8.3,29,0.00,,,-99.99,FreeWX 2.04,2013-04-19 16:35:00,
2013-04-19 10:45:00,40.6,10.9,25.25,North,6,4.0,6.3,29,0.00,,,-99.99,FreeWX 2.04,2013-04-19 16:45:00,
2013-04-19 10:50:00,41.4,11.5,25.25,North,357,3.0,6.7,29,0.00,,,-99.99,FreeWX 2.04,2013-04-19 16:50:00,
2013-04-19 10:55:00,41.2,10.6,25.25,North,3,3.0,6.9,28,0.00,,,-99.99,FreeWX 2.04,2013-04-19 16:55:00,
2013-04-19 11:00:00,41.5,10.9,25.25,North,9,2.0,5.8,28,0.00,,,-99.99,FreeWX 2.04,2013-04-19 17:00:00,
2013-04-19 11:05:00,42.1,11.3,25.25,NNE,26,3.0,6.7,28,0.00,,,-99.99,FreeWX 2.04,2013-04-19 17:05:00,
2013-04-19 11:10:00,42.3,11.5,25.25,NE,51,4.0,5.8,28,0.00,,,-99.99,FreeWX 2.04,2013-04-19 17:10:00,
2013-04-19 11:15:00,42.4,9.1,25.25,ENE,62,3.0,5.8,25,0.00,,,-99.99,FreeWX 2.04,2013-04-19 17:15:00,
2013-04-19 11:20:00,43.2,12.4,25.25,ENE,61,3.0,7.4,28,0.00,,,-99.99,FreeWX 2.04,2013-04-19 17:20:00,
2013-04-19 11:25:00,43.0,12.2,25.25,North,352,3.0,6.9,28,0.00,,,-99.99,FreeWX 2.04,2013-04-19 17:25:00,
2013-04-19 11:30:00,43.5,10.0,25.25,NW,310,3.0,6.7,25,0.00,,,-99.99,FreeWX 2.04,2013-04-19 17:30:00,
2013-04-19 11:35:00,43.0,4.6,25.25,NNW,328,4.0,6.3,20,0.00,,,-99.99,FreeWX 2.04,2013-04-19 17:35:00,
2013-04-19 11:40:00,43.2,4.8,25.25,NNW,329,4.0,6.3,20,0.00,,,-99.99,FreeWX 2.04,2013-04-19 17:40:00,
2013-04-19 11:45:00,44.1,5.5,25.25,NW,315,3.0,5.8,20,0.00,,,-99.99,FreeWX 2.04,2013-04-19 17:45:00,
2013-04-19 11:50:00,44.2,5.7,25.25,North,356,3.0,6.7,20,0.00,,,-99.99,FreeWX 2.04,2013-04-19 17:50:00,
2013-04-19 11:55:00,44.4,5.9,25.22,NE,49,4.0,6.9,20,0.00,,,-99.99,FreeWX 2.04,2013-04-19 17:55:00,
2013-04-19 12:00:00,44.6,8.1,25.22,SSW,206,4.0,6.7,22,0.00,,,-99.99,FreeWX 2.04,2013-04-19 18:00:00,
2013-04-19 12:05:00,44.6,10.9,25.22,WSW,245,4.0,8.7,25,0.00,,,-99.99,FreeWX 2.04,2013-04-19 18:05:00,
2013-04-19 12:10:00,44.4,8.1,25.22,West,269,5.0,13.0,22,0.00,,,-99.99,FreeWX 2.04,2013-04-19 18:10:00,
2013-04-19 12:15:00,44.8,8.2,25.22,West,269,5.0,7.4,22,0.00,,,-99.99,FreeWX 2.04,2013-04-19 18:15:00,
2013-04-19 12:20:00,45.9,13.8,25.22,West,263,4.0,6.9,27,0.00,,,-99.99,FreeWX 2.04,2013-04-19 18:20:00,
2013-04-19 12:25:00,45.3,11.7,25.22,West,262,4.0,7.4,25,0.00,,,-99.99,FreeWX 2.04,2013-04-19 18:25:00,
2013-04-19 12:30:00,46.6,14.4,25.22,WNW,289,4.0,7.4,27,0.00,,,-99.99,FreeWX 2.04,2013-04-19 18:30:00,
2013-04-19 12:35:00,45.9,13.8,25.22,West,280,5.0,10.5,27,0.00,,,-99.99,FreeWX 2.04,2013-04-19 18:35:00,
2013-04-19 12:40:00,46.6,14.4,25.22,WSW,247,7.0,10.5,27,0.00,,,-99.99,FreeWX 2.04,2013-04-19 18:40:00,
2013-04-19 12:45:00,46.4,14.2,25.22,WSW,248,6.0,9.2,27,0.00,,,-99.99,FreeWX 2.04,2013-04-19 18:45:00,
2013-04-19 12:50:00,47.3,15.8,25.22,WSW,257,5.0,8.7,28,0.00,,,-99.99,FreeWX 2.04,2013-04-19 18:50:00,
2013-04-19 12:55:00,47.5,12.6,25.19,West,280,4.0,6.7,24,0.00,,,-99.99,FreeWX 2.04,2013-04-19 18:55:00,
2013-04-19 13:00:00,47.1,12.2,25.19,WNW,291,3.0,6.9,24,0.00,,,-99.99,FreeWX 2.04,2013-04-19 19:00:00,
2013-04-19 13:05:00,47.5,14.4,25.19,WSW,253,4.0,8.7,26,0.00,,,-99.99,FreeWX 2.04,2013-04-19 19:05:00,
2013-04-19 13:10:00,47.7,9.7,25.19,SSW,192,4.0,7.4,21,0.00,,,-99.99,FreeWX 2.04,2013-04-19 19:10:00,
2013-04-19 13:15:00,48.2,15.8,25.19,South,173,5.0,10.5,27,0.00,,,-99.99,FreeWX 2.04,2013-04-19 19:15:00,
2013-04-19 13:20:00,48.2,10.0,25.19,South,178,5.0,7.8,21,0.00,,,-99.99,FreeWX 2.04,2013-04-19 19:20:00,
2013-04-19 13:25:00,47.8,9.9,25.19,SSW,208,4.0,7.8,21,0.00,,,-99.99,FreeWX 2.04,2013-04-19 19:25:00,
2013-04-19 13:30:00,48.4,8.1,25.19,WSW,245,4.0,6.7,19,0.00,,,-99.99,FreeWX 2.04,2013-04-19 19:30:00,
2013-04-19 13:35:00,48.4,13.3,25.19,West,266,4.0,6.9,24,0.00,,,-99.99,FreeWX 2.04,2013-04-19 19:35:00,
2013-04-19 13:40:00,48.9,13.8,25.16,WSW,255,5.0,10.5,24,0.00,,,-99.99,FreeWX 2.04,2013-04-19 19:40:00,
2013-04-19 13:46:00,48.6,10.4,25.16,WSW,239,6.0,12.5,21,0.00,,,-99.99,FreeWX 2.04,2013-04-19 19:46:00,
2013-04-19 13:51:00,48.2,7.9,25.16,SW,233,8.0,13.9,19,0.00,,,-99.99,FreeWX 2.04,2013-04-19 19:51:00,
2013-04-19 13:56:00,48.7,13.6,25.16,West,267,6.0,9.2,24,0.00,,,-99.99,FreeWX 2.04,2013-04-19 19:56:00,
2013-04-19 14:01:00,49.3,10.9,25.16,West,266,6.0,11.2,21,0.00,,,-99.99,FreeWX 2.04,2013-04-19 20:01:00,
2013-04-19 14:06:00,49.5,9.0,25.16,SW,220,7.0,14.3,19,0.00,,,-99.99,FreeWX 2.04,2013-04-19 20:06:00,
2013-04-19 14:11:00,49.3,8.8,25.16,SW,224,7.0,10.5,19,0.00,,,-99.99,FreeWX 2.04,2013-04-19 20:11:00,
2013-04-19 14:16:00,49.1,8.6,25.16,WSW,254,6.0,10.1,19,0.00,,,-99.99,FreeWX 2.04,2013-04-19 20:16:00,
2013-04-19 14:21:00,50.7,17.1,25.16,West,267,6.0,10.5,26,0.00,,,-99.99,FreeWX 2.04,2013-04-19 20:21:00,
2013-04-19 14:26:00,50.9,9.0,25.16,WSW,240,6.0,9.2,18,0.00,,,-99.99,FreeWX 2.04,2013-04-19 20:26:00,
2013-04-19 14:31:00,50.4,11.8,25.16,West,267,5.0,7.8,21,0.00,,,-99.99,FreeWX 2.04,2013-04-19 20:31:00,
2013-04-19 14:36:00,50.4,9.7,25.16,NNW,327,4.0,8.3,19,0.00,,,-99.99,FreeWX 2.04,2013-04-19 20:36:00,
2013-04-19 14:41:00,50.4,14.9,25.16,NW,305,5.0,12.5,24,0.00,,,-99.99,FreeWX 2.04,2013-04-19 20:41:00,
2013-04-19 14:46:00,50.2,11.8,25.16,West,281,7.0,12.1,21,0.00,,,-99.99,FreeWX 2.04,2013-04-19 20:46:00,
2013-04-19 14:51:00,50.4,11.8,25.16,WNW,291,6.0,8.3,21,0.00,,,-99.99,FreeWX 2.04,2013-04-19 20:51:00,
2013-04-19 14:56:00,50.4,14.9,25.13,West,278,7.0,14.8,24,0.00,,,-99.99,FreeWX 2.04,2013-04-19 20:56:00,
2013-04-19 15:01:00,50.7,10.0,25.13,WSW,249,7.0,11.6,19,0.00,,,-99.99,FreeWX 2.04,2013-04-19 21:01:00,
2013-04-19 15:06:00,51.1,14.5,25.13,WSW,248,6.0,11.0,23,0.00,,,-99.99,FreeWX 2.04,2013-04-19 21:06:00,
2013-04-19 15:11:00,50.2,9.5,25.13,WSW,258,6.0,8.3,19,0.00,,,-99.99,FreeWX 2.04,2013-04-19 21:11:00,
2013-04-19 15:16:00,51.1,9.1,25.13,NW,305,6.0,10.1,18,0.00,,,-99.99,FreeWX 2.04,2013-04-19 21:16:00,
2013-04-19 15:21:00,51.8,9.7,25.13,WNW,282,6.0,10.1,18,0.00,,,-99.99,FreeWX 2.04,2013-04-19 21:21:00,
2013-04-19 15:26:00,51.8,9.7,25.13,WSW,237,7.0,13.0,18,0.00,,,-99.99,FreeWX 2.04,2013-04-19 21:26:00,
2013-04-19 15:31:00,51.4,9.3,25.13,SSW,198,8.0,12.1,18,0.00,,,-99.99,FreeWX 2.04,2013-04-19 21:31:00,
2013-04-19 15:36:00,52.3,13.6,25.13,South,184,6.0,9.2,21,0.00,,,-99.99,FreeWX 2.04,2013-04-19 21:36:00,
2013-04-19 15:41:00,52.2,10.0,25.13,SSW,197,5.0,12.5,18,0.00,,,-99.99,FreeWX 2.04,2013-04-19 21:41:00,
2013-04-19 15:46:00,51.6,7.0,25.13,SSW,211,6.0,10.5,16,0.00,,,-99.99,FreeWX 2.04,2013-04-19 21:46:00,
2013-04-19 15:51:00,52.0,7.2,25.13,West,273,6.0,12.5,16,0.00,,,-99.99,FreeWX 2.04,2013-04-19 21:51:00,
2013-04-19 15:56:00,51.3,6.6,25.10,WNW,302,6.0,11.6,16,0.00,,,-99.99,FreeWX 2.04,2013-04-19 21:56:00,
2013-04-19 16:01:00,51.4,6.8,25.10,West,281,6.0,8.3,16,0.00,,,-99.99,FreeWX 2.04,2013-04-19 22:01:00,
2013-04-19 16:06:00,51.6,7.0,25.10,West,273,4.0,8.7,16,0.00,,,-99.99,FreeWX 2.04,2013-04-19 22:06:00,
2013-04-19 16:11:00,51.6,7.0,25.10,WNW,302,3.0,6.7,16,0.00,,,-99.99,FreeWX 2.04,2013-04-19 22:11:00,
2013-04-19 16:16:00,51.6,9.5,25.10,NW,316,4.0,9.6,18,0.00,,,-99.99,FreeWX 2.04,2013-04-19 22:16:00,
2013-04-19 16:21:00,52.0,7.2,25.10,West,276,5.0,10.1,16,0.00,,,-99.99,FreeWX 2.04,2013-04-19 22:21:00,
2013-04-19 16:26:00,51.6,7.0,25.10,WSW,255,5.0,7.4,16,0.00,,,-99.99,FreeWX 2.04,2013-04-19 22:26:00,
2013-04-19 16:31:00,51.8,7.0,25.10,WSW,253,5.0,7.8,16,0.00,,,-99.99,FreeWX 2.04,2013-04-19 22:31:00,
2013-04-19 16:36:00,52.0,7.2,25.10,West,269,5.0,8.3,16,0.00,,,-99.99,FreeWX 2.04,2013-04-19 22:36:00,
2013-04-19 16:41:00,52.2,2.8,25.10,West,275,4.0,6.3,13,0.00,,,-99.99,FreeWX 2.04,2013-04-19 22:41:00,
2013-04-19 16:46:00,52.0,2.7,25.10,NW,314,3.0,6.9,13,0.00,,,-99.99,FreeWX 2.04,2013-04-19 22:46:00,
2013-04-19 16:51:00,52.7,7.9,25.10,NNW,343,3.0,5.8,16,0.00,,,-99.99,FreeWX 2.04,2013-04-19 22:51:00,
2013-04-19 16:56:00,52.7,3.2,25.10,NW,318,2.0,4.5,13,0.00,,,-99.99,FreeWX 2.04,2013-04-19 22:56:00,
2013-04-19 17:01:00,52.2,2.8,25.10,NW,317,4.0,10.5,13,0.00,,,-99.99,FreeWX 2.04,2013-04-19 23:01:00,
2013-04-19 17:06:00,52.0,2.7,25.10,NW,308,6.0,11.6,13,0.00,,,-99.99,FreeWX 2.04,2013-04-19 23:06:00,
2013-04-19 17:11:00,52.0,2.7,25.07,WNW,287,6.0,10.1,13,0.00,,,-99.99,FreeWX 2.04,2013-04-19 23:11:00,
2013-04-19 17:16:00,52.0,2.7,25.07,West,274,5.0,8.3,13,0.00,,,-99.99,FreeWX 2.04,2013-04-19 23:16:00,
2013-04-19 17:21:00,52.2,2.8,25.07,West,272,4.0,5.4,13,0.00,,,-99.99,FreeWX 2.04,2013-04-19 23:21:00,
2013-04-19 17:26:00,52.3,3.0,25.07,NW,304,4.0,7.4,13,0.00,,,-99.99,FreeWX 2.04,2013-04-19 23:26:00,
2013-04-19 17:31:00,52.2,2.8,25.07,North,6,5.0,7.4,13,0.00,,,-99.99,FreeWX 2.04,2013-04-19 23:31:00,
2013-04-19 17:36:00,52.5,3.2,25.07,North,2,5.0,7.8,13,0.00,,,-99.99,FreeWX 2.04,2013-04-19 23:36:00,
2013-04-19 17:41:00,52.2,2.8,25.07,NNW,343,5.0,7.4,13,0.00,,,-99.99,FreeWX 2.04,2013-04-19 23:41:00,
2013-04-19 17:46:00,52.7,3.2,25.07,NNW,345,5.0,8.3,13,0.00,,,-99.99,FreeWX 2.04,2013-04-19 23:46:00,
2013-04-19 17:51:00,52.2,2.8,25.07,North,350,6.0,10.1,13,0.00,,,-99.99,FreeWX 2.04,2013-04-19 23:51:00,
2013-04-19 17:56:00,52.3,3.0,25.07,NNW,346,7.0,8.3,13,0.00,,,-99.99,FreeWX 2.04,2013-04-19 23:56:00,
2013-04-19 18:01:00,52.2,2.8,25.07,North,351,6.0,10.5,13,0.00,,,-99.99,FreeWX 2.04,2013-04-20 00:01:00,
2013-04-19 18:06:00,52.0,2.7,25.07,North,351,5.0,8.7,13,0.00,,,-99.99,FreeWX 2.04,2013-04-20 00:06:00,
2013-04-19 18:11:00,51.8,2.5,25.07,NNW,343,4.0,7.4,13,0.00,,,-99.99,FreeWX 2.04,2013-04-20 00:11:00,
2013-04-19 18:16:00,51.8,2.5,25.07,North,351,2.0,4.9,13,0.00,,,-99.99,FreeWX 2.04,2013-04-20 00:16:00,
2013-04-19 18:21:00,51.6,2.5,25.07,North,0,3.0,7.4,13,0.00,,,-99.99,FreeWX 2.04,2013-04-20 00:21:00,
2013-04-19 18:26:00,51.6,2.5,25.07,NNW,347,4.0,7.4,13,0.00,,,-99.99,FreeWX 2.04,2013-04-20 00:26:00,
2013-04-19 18:31:00,51.6,2.5,25.07,NNW,341,6.0,9.6,13,0.00,,,-99.99,FreeWX 2.04,2013-04-20 00:31:00,
2013-04-19 18:36:00,51.6,2.5,25.07,NNW,348,7.0,11.0,13,0.00,,,-99.99,FreeWX 2.04,2013-04-20 00:36:00,
2013-04-19 18:41:00,51.6,2.5,25.07,North,358,6.0,9.2,13,0.00,,,-99.99,FreeWX 2.04,2013-04-20 00:41:00,
2013-04-19 18:46:00,51.6,2.5,25.07,North,7,6.0,8.7,13,0.00,,,-99.99,FreeWX 2.04,2013-04-20 00:46:00,
2013-04-19 18:51:00,51.4,2.3,25.07,North,2,6.0,9.6,13,0.00,,,-99.99,FreeWX 2.04,2013-04-20 00:51:00,
2013-04-19 18:56:00,51.6,2.5,25.04,North,5,7.0,8.7,13,0.00,,,-99.99,FreeWX 2.04,2013-04-20 00:56:00,
2013-04-19 19:01:00,51.3,2.1,25.04,North,3,7.0,11.2,13,0.00,,,-99.99,FreeWX 2.04,2013-04-20 01:01:00,
2013-04-19 19:06:00,51.3,2.1,25.04,North,356,8.0,12.1,13,0.00,,,-99.99,FreeWX 2.04,2013-04-20 01:06:00,
2013-04-19 19:11:00,51.3,2.1,25.04,North,352,8.0,11.6,13,0.00,,,-99.99,FreeWX 2.04,2013-04-20 01:11:00,
2013-04-19 19:16:00,51.1,1.9,25.04,NNW,346,8.0,10.5,13,0.00,,,-99.99,FreeWX 2.04,2013-04-20 01:16:00,
2013-04-19 19:21:00,51.3,2.1,25.04,NNW,347,7.0,9.6,13,0.00,,,-99.99,FreeWX 2.04,2013-04-20 01:21:00,
2013-04-19 19:26:00,51.1,1.9,25.04,NNW,346,6.0,7.8,13,0.00,,,-99.99,FreeWX 2.04,2013-04-20 01:26:00,
2013-04-19 19:31:00,51.1,1.9,25.04,NNW,337,6.0,8.7,13,0.00,,,-99.99,FreeWX 2.04,2013-04-20 01:31:00,
2013-04-19 19:36:00,50.9,1.8,25.04,NNW,332,6.0,8.7,13,0.00,,,-99.99,FreeWX 2.04,2013-04-20 01:36:00,
2013-04-19 19:41:00,50.9,1.8,25.04,NNW,333,6.0,7.8,13,0.00,,,-99.99,FreeWX 2.04,2013-04-20 01:41:00,
2013-04-19 19:46:00,50.9,1.8,25.04,NNW,327,6.0,7.4,13,0.00,,,-99.99,FreeWX 2.04,2013-04-20 01:46:00,
2013-04-19 19:51:00,50.9,3.4,25.04,NNW,330,6.0,9.6,14,0.00,,,-99.99,FreeWX 2.04,2013-04-20 01:51:00,
2013-04-19 19:56:00,50.7,3.2,25.04,NNW,339,7.0,10.1,14,0.00,,,-99.99,FreeWX 2.04,2013-04-20 01:56:00,
2013-04-19 20:01:00,50.7,3.2,25.04,NNW,332,7.0,9.6,14,0.00,,,-99.99,FreeWX 2.04,2013-04-20 02:01:00,
2013-04-19 20:06:00,50.5,6.1,25.04,NNW,328,5.0,6.7,16,0.00,,,-99.99,FreeWX 2.04,2013-04-20 02:06:00,
2013-04-19 20:11:00,50.2,5.7,25.04,NW,326,3.0,5.8,16,0.00,,,-99.99,FreeWX 2.04,2013-04-20 02:11:00,
2013-04-19 20:16:00,49.6,9.1,25.04,South,186,3.0,7.8,19,0.00,,,-99.99,FreeWX 2.04,2013-04-20 02:16:00,
2013-04-19 20:21:00,49.5,11.1,25.04,SSE,161,3.0,5.8,21,0.00,,,-99.99,FreeWX 2.04,2013-04-20 02:21:00,
2013-04-19 20:26:00,50.4,9.7,25.04,SSW,201,3.0,6.3,19,0.00,,,-99.99,FreeWX 2.04,2013-04-20 02:26:00,
2013-04-19 20:31:00,50.4,9.7,25.04,SW,231,3.0,4.0,19,0.00,,,-99.99,FreeWX 2.04,2013-04-20 02:31:00,
2013-04-19 20:36:00,50.4,9.7,25.04,SW,226,2.0,4.0,19,0.00,,,-99.99,FreeWX 2.04,2013-04-20 02:36:00,
2013-04-19 20:41:00,50.0,11.7,25.04,SW,218,2.0,3.6,21,0.00,,,-99.99,FreeWX 2.04,2013-04-20 02:41:00,
2013-04-19 20:46:00,49.6,11.3,25.04,SW,217,1.0,3.1,21,0.00,,,-99.99,FreeWX 2.04,2013-04-20 02:46:00,
2013-04-19 20:51:00,49.5,11.1,25.04,SW,217,2.0,4.0,21,0.00,,,-99.99,FreeWX 2.04,2013-04-20 02:51:00,
2013-04-19 20:56:00,49.1,13.8,25.04,SW,215,3.0,4.0,24,0.00,,,-99.99,FreeWX 2.04,2013-04-20 02:56:00,
2013-04-19 21:01:00,48.7,16.3,25.04,South,188,3.0,4.0,27,0.00,,,-99.99,FreeWX 2.04,2013-04-20 03:01:00,
2013-04-19 21:06:00,48.4,16.0,25.04,SSE,148,3.0,4.0,27,0.00,,,-99.99,FreeWX 2.04,2013-04-20 03:06:00,
2013-04-19 21:11:00,48.0,16.5,25.07,SE,141,1.0,3.1,28,0.00,,,-99.99,FreeWX 2.04,2013-04-20 03:11:00,
2013-04-19 21:17:00,47.7,17.1,25.07,North,-999,0.0,0.0,29,0.00,,,-99.99,FreeWX 2.04,2013-04-20 03:17:00,
2013-04-19 21:22:00,47.7,19.9,25.07,North,-999,0.0,0.0,33,0.00,,,-99.99,FreeWX 2.04,2013-04-20 03:22:00,
2013-04-19 21:27:00,48.0,19.6,25.07,North,-999,0.0,3.6,32,0.00,,,-99.99,FreeWX 2.04,2013-04-20 03:27:00,
2013-04-19 21:32:00,48.4,19.9,25.07,SE,141,2.0,4.9,32,0.00,,,-99.99,FreeWX 2.04,2013-04-20 03:32:00,
2013-04-19 21:37:00,48.7,19.4,25.07,SE,132,4.0,7.4,31,0.00,,,-99.99,FreeWX 2.04,2013-04-20 03:37:00,
2013-04-19 21:42:00,49.1,18.3,25.07,ESE,121,4.0,5.8,29,0.00,,,-99.99,FreeWX 2.04,2013-04-20 03:42:00,
2013-04-19 21:47:00,49.5,18.5,25.07,SE,124,3.0,6.3,29,0.00,,,-99.99,FreeWX 2.04,2013-04-20 03:47:00,
2013-04-19 21:52:00,49.6,18.0,25.07,SE,129,4.0,6.7,28,0.00,,,-99.99,FreeWX 2.04,2013-04-20 03:52:00,
2013-04-19 21:57:00,50.0,17.4,25.07,SE,135,5.0,9.2,27,0.00,,,-99.99,FreeWX 2.04,2013-04-20 03:57:00,
2013-04-19 22:02:00,50.2,17.4,25.07,SE,140,6.0,10.1,27,0.00,,,-99.99,FreeWX 2.04,2013-04-20 04:02:00,
2013-04-19 22:07:00,50.0,17.4,25.07,SE,144,5.0,6.7,27,0.00,,,-99.99,FreeWX 2.04,2013-04-20 04:07:00,
2013-04-19 22:12:00,50.0,17.4,25.07,SSE,153,5.0,11.0,27,0.00,,,-99.99,FreeWX 2.04,2013-04-20 04:12:00,
2013-04-19 22:17:00,49.8,18.9,25.07,SSE,163,8.0,13.4,29,0.00,,,-99.99,FreeWX 2.04,2013-04-20 04:17:00,
2013-04-19 22:22:00,49.6,18.7,25.07,South,172,8.0,11.0,29,0.00,,,-99.99,FreeWX 2.04,2013-04-20 04:22:00,
2013-04-19 22:27:00,49.5,18.5,25.07,South,179,8.0,11.0,29,0.00,,,-99.99,FreeWX 2.04,2013-04-20 04:27:00,
2013-04-19 22:32:00,49.3,19.2,25.07,South,186,7.0,10.5,30,0.00,,,-99.99,FreeWX 2.04,2013-04-20 04:32:00,
2013-04-19 22:37:00,48.9,19.6,25.07,South,184,6.0,7.8,31,0.00,,,-99.99,FreeWX 2.04,2013-04-20 04:37:00,
2013-04-19 22:42:00,48.7,19.4,25.07,South,174,5.0,6.9,31,0.00,,,-99.99,FreeWX 2.04,2013-04-20 04:42:00,
2013-04-19 22:47:00,48.7,19.4,25.07,South,170,4.0,4.9,31,0.00,,,-99.99,FreeWX 2.04,2013-04-20 04:47:00,
2013-04-19 22:52:00,48.6,20.1,25.07,South,172,3.0,6.3,32,0.00,,,-99.99,FreeWX 2.04,2013-04-20 04:52:00,
2013-04-19 22:57:00,48.7,20.3,25.07,SSE,167,3.0,7.8,32,0.00,,,-99.99,FreeWX 2.04,2013-04-20 04:57:00,
2013-04-19 23:02:00,48.6,20.1,25.07,SSE,158,2.0,4.5,32,0.00,,,-99.99,FreeWX 2.04,2013-04-20 05:02:00,
2013-04-19 23:07:00,48.4,19.9,25.07,North,-999,0.0,0.0,32,0.00,,,-99.99,FreeWX 2.04,2013-04-20 05:07:00,
2013-04-19 23:12:00,48.4,19.9,25.07,North,-999,0.0,4.5,32,0.00,,,-99.99,FreeWX 2.04,2013-04-20 05:12:00,
2013-04-19 23:17:00,48.6,20.1,25.07,SSE,156,1.0,3.6,32,0.00,,,-99.99,FreeWX 2.04,2013-04-20 05:17:00,
2013-04-19 23:22:00,48.2,21.2,25.07,North,-999,0.0,2.7,34,0.00,,,-99.99,FreeWX 2.04,2013-04-20 05:22:00,
2013-04-19 23:28:00,48.0,21.7,25.07,North,-999,0.0,3.6,35,0.00,,,-99.99,FreeWX 2.04,2013-04-20 05:28:00,
2013-04-19 23:33:00,47.8,21.6,25.07,North,-999,0.0,3.1,35,0.00,,,-99.99,FreeWX 2.04,2013-04-20 05:33:00,
2013-04-19 23:38:00,47.8,22.3,25.07,SSE,155,1.0,5.8,36,0.00,,,-99.99,FreeWX 2.04,2013-04-20 05:38:00,
2013-04-19 23:43:00,47.7,22.6,25.07,SE,143,3.0,5.4,37,0.00,,,-99.99,FreeWX 2.04,2013-04-20 05:43:00,
2013-04-19 23:48:00,47.7,22.6,25.07,ESE,121,3.0,6.3,37,0.00,,,-99.99,FreeWX 2.04,2013-04-20 05:48:00,
2013-04-19 23:53:00,48.0,22.3,25.04,East,91,4.0,8.7,36,0.00,,,-99.99,FreeWX 2.04,2013-04-20 05:53:00,
2013-04-19 23:58:00,48.6,20.8,25.04,NE,47,5.0,9.6,33,0.00,,,-99.99,FreeWX 2.04,2013-04-20 05:58:00,